When you browse on this site, cookies collect data to enhance your experience and personalize the content and advertising you see.
Visit our Privacy Policy to learn more. By continuing to use the site, you agree to this use of cookies and data.
  • In Romania
  • List of Countries
  • For 7 days
  • Water Temperature
  • Satellite Maps
  • Weather Map
  • Weather Widgets
  • user-avatar
    Login

    Hourly Weather Ekatino

    Today, 21 November, Wednesday

    Time Temperature Precipitation Wind Pressure Humidity
    00:00 -5°C° 0 mm 3 mps 752 mmHg 85%
    01:00 -5°C° 0 mm 3 mps 752 mmHg 86%
    02:00 -5°C° 0 mm 3 mps 752 mmHg 88%
    03:00 -4°C° 0 mm 3 mps 752 mmHg 88%
    04:00 -4°C° 0 mm 3 mps 752 mmHg 88%
    05:00 -4°C° 0 mm 3 mps 752 mmHg 88%
    06:00 -4°C° 0 mm 3 mps 752 mmHg 88%
    07:00 -3°C° 0 mm 2 mps 752 mmHg 89%
    08:00 -3°C° 0 mm 2 mps 752 mmHg 89%
    09:00 -3°C° 0 mm 2 mps 753 mmHg 88%
    10:00 -3°C° 0 mm 2 mps 753 mmHg 87%
    11:00 -3°C° 0 mm 2 mps 753 mmHg 86%
    12:00 -3°C° 0 mm 2 mps 753 mmHg 87%
    13:00 -3°C° 0 mm 2 mps 753 mmHg 87%
    14:00 -3°C° 0 mm 2 mps 752 mmHg 87%
    15:00 -4°C° 0 mm 3 mps 752 mmHg 88%
    16:00 -4°C° 0 mm 3 mps 752 mmHg 90%
    17:00 -5°C° 0 mm 3 mps 752 mmHg 91%
    18:00 -4°C° 0 mm 3 mps 752 mmHg 90%
    19:00 -4°C° 0 mm 3 mps 751 mmHg 88%
    20:00 -4°C° 0 mm 3 mps 751 mmHg 87%
    21:00 -4°C° 0 mm 3 mps 751 mmHg 87%
    22:00 -4°C° 0 mm 3 mps 750 mmHg 87%
    23:00 -4°C° 0 mm 3 mps 750 mmHg 87%

    Tomorrow, 22 November, Thursday

    Time Temperature Precipitation Wind Pressure Humidity
    00:00 -4°C° 0 mm 3 mps 750 mmHg 87%
    01:00 -4°C° 0 mm 4 mps 749 mmHg 88%
    02:00 -5°C° 0 mm 4 mps 749 mmHg 88%
    03:00 -5°C° 0 mm 4 mps 749 mmHg 88%
    04:00 -5°C° 0 mm 4 mps 748 mmHg 88%
    05:00 -5°C° 0 mm 4 mps 748 mmHg 89%
    06:00 -5°C° 0 mm 4 mps 748 mmHg 87%
    07:00 -5°C° 0 mm 4 mps 747 mmHg 86%
    08:00 -4°C° 0 mm 4 mps 747 mmHg 85%
    09:00 -5°C° 0 mm 5 mps 747 mmHg 83%
    10:00 -4°C° 0 mm 5 mps 746 mmHg 82%
    11:00 -4°C° 0 mm 5 mps 746 mmHg 80%
    12:00 -4°C° 0 mm 5 mps 746 mmHg 80%
    13:00 -2°C° 0 mm 5 mps 746 mmHg 80%
    14:00 -2°C° 0 mm 5 mps 745 mmHg 80%
    15:00 -2°C° 0 mm 5 mps 745 mmHg 81%
    16:00 -2°C° 0 mm 5 mps 745 mmHg 82%
    17:00 -2°C° 0 mm 5 mps 745 mmHg 83%
    18:00 -2°C° 0 mm 5 mps 745 mmHg 83%
    19:00 -2°C° 0 mm 5 mps 745 mmHg 83%
    20:00 -2°C° 0 mm 4 mps 746 mmHg 84%
    21:00 -2°C° 0 mm 4 mps 746 mmHg 84%
    22:00 -2°C° 0 mm 4 mps 746 mmHg 84%
    23:00 -3°C° 0 mm 4 mps 747 mmHg 85%

    Day after tomorrow, 23 November, Friday

    Time Temperature Precipitation Wind Pressure Humidity
    00:00 -3°C° 0 mm 4 mps 747 mmHg 86%
    01:00 -4°C° 0 mm 3 mps 748 mmHg 88%
    02:00 -5°C° 0 mm 3 mps 748 mmHg 89%
    03:00 -5°C° 0 mm 3 mps 749 mmHg 90%
    04:00 -5°C° 0 mm 3 mps 749 mmHg 91%
    05:00 -5°C° 0 mm 2 mps 750 mmHg 91%
    06:00 -5°C° 0 mm 2 mps 750 mmHg 91%
    07:00 -6°C° 0 mm 2 mps 751 mmHg 91%
    08:00 -6°C° 0 mm 2 mps 751 mmHg 91%
    09:00 -3°C° 0 mm 1 mps 751 mmHg 87%
    10:00 -2°C° 0 mm 1 mps 752 mmHg 83%
    11:00 -1°C° 0 mm 1 mps 752 mmHg 79%
    12:00 -1°C° 0 mm 1 mps 752 mmHg 79%
    13:00 -3°C° 0 mm 2 mps 752 mmHg 79%
    14:00 -3°C° 0 mm 2 mps 752 mmHg 79%
    15:00 -3°C° 0 mm 2 mps 752 mmHg 83%
    16:00 -4°C° 0 mm 2 mps 751 mmHg 86%
    17:00 -4°C° 0 mm 2 mps 751 mmHg 89%
    18:00 -4°C° 0 mm 3 mps 751 mmHg 88%
    19:00 -4°C° 0 mm 3 mps 750 mmHg 87%
    20:00 -4°C° 0 mm 3 mps 750 mmHg 86%
    21:00 -2°C° 0 mm 3 mps 750 mmHg 85%
    22:00 -3°C° 0 mm 4 mps 749 mmHg 84%
    23:00 -3°C° 0 mm 4 mps 749 mmHg 83%

    24 November, Saturday

    Time Temperature Precipitation Wind Pressure Humidity
    00:00 -3°C° 0 mm 4 mps 748 mmHg 82%
    01:00 -3°C° 0 mm 4 mps 748 mmHg 82%
    02:00 -4°C° 0 mm 5 mps 747 mmHg 82%
    03:00 -4°C° 0 mm 5 mps 747 mmHg 81%
    04:00 -4°C° 0 mm 5 mps 746 mmHg 80%
    05:00 -4°C° 0 mm 5 mps 746 mmHg 80%
    06:00 -4°C° 0 mm 5 mps 745 mmHg 80%
    07:00 -5°C° 0 mm 5 mps 745 mmHg 79%
    08:00 -5°C° 0 mm 5 mps 745 mmHg 79%
    09:00 -5°C° 0 mm 5 mps 744 mmHg 79%
    10:00 -5°C° 0 mm 5 mps 744 mmHg 78%
    11:00 -5°C° 0 mm 5 mps 744 mmHg 77%
    12:00 -4°C° 0 mm 4 mps 743 mmHg 77%
    13:00 -4°C° 0 mm 4 mps 743 mmHg 77%
    14:00 -4°C° 0 mm 4 mps 743 mmHg 77%
    15:00 -4°C° 0 mm 4 mps 742 mmHg 79%
    16:00 -4°C° 0 mm 4 mps 742 mmHg 80%
    17:00 -4°C° 0 mm 4 mps 742 mmHg 81%
    18:00 -4°C° 0 mm 4 mps 741 mmHg 82%
    19:00 -4°C° 0 mm 4 mps 741 mmHg 83%
    20:00 -4°C° 0 mm 4 mps 741 mmHg 84%
    21:00 -4°C° 0.1 mm 4 mps 741 mmHg 84%
    22:00 -4°C° 0.1 mm 4 mps 741 mmHg 85%
    23:00 -4°C° 0.1 mm 4 mps 741 mmHg 86%

    25 November, Sunday

    Time Temperature Precipitation Wind Pressure Humidity
    00:00 -4°C° 0 mm 3 mps 741 mmHg 86%
    01:00 -4°C° 0 mm 3 mps 741 mmHg 87%
    02:00 -4°C° 0 mm 3 mps 741 mmHg 88%
    03:00 -4°C° 0 mm 3 mps 741 mmHg 88%
    04:00 -3°C° 0 mm 2 mps 742 mmHg 88%
    05:00 -2°C° 0 mm 2 mps 742 mmHg 88%
    06:00 -3°C° 0 mm 2 mps 742 mmHg 90%
    07:00 -4°C° 0 mm 2 mps 743 mmHg 91%
    08:00 -4°C° 0 mm 2 mps 743 mmHg 93%
    09:00 -4°C° 0 mm 2 mps 743 mmHg 90%
    10:00 -3°C° 0 mm 2 mps 743 mmHg 87%
    11:00 -3°C° 0 mm 2 mps 744 mmHg 83%
    12:00 -1°C° 0 mm 1 mps 744 mmHg 84%
    13:00 -1°C° 0 mm 1 mps 744 mmHg 85%
    14:00 -1°C° 0 mm 1 mps 744 mmHg 86%
    15:00 -2°C° 0 mm 1 mps 744 mmHg 88%
    16:00 -3°C° 0 mm 1 mps 744 mmHg 90%
    17:00 -3°C° 0 mm 1 mps 744 mmHg 92%
    18:00 -4°C° 0 mm 1 mps 743 mmHg 92%
    19:00 -4°C° 0 mm 1 mps 743 mmHg 93%
    20:00 -4°C° 0 mm 1 mps 743 mmHg 93%
    21:00 -4°C° 0 mm 1 mps 743 mmHg 93%
    22:00 -4°C° 0 mm 1 mps 742 mmHg 93%
    23:00 -4°C° 0 mm 1 mps 742 mmHg 93%

    26 November, Monday

    Time Temperature Precipitation Wind Pressure Humidity
    00:00 -4°C° 0 mm 1 mps 742 mmHg 93%
    01:00 -4°C° 0 mm 1 mps 742 mmHg 92%
    02:00 -5°C° 0 mm 0 mps 741 mmHg 92%
    03:00 -4°C° 0 mm 1 mps 741 mmHg 93%
    04:00 -4°C° 0 mm 1 mps 740 mmHg 93%
    05:00 -4°C° 0 mm 1 mps 740 mmHg 93%
    06:00 -4°C° 0 mm 1 mps 740 mmHg 93%
    07:00 -4°C° 0 mm 1 mps 740 mmHg 93%
    08:00 -6°C° 0 mm 1 mps 740 mmHg 93%
    09:00 -6°C° 0 mm 2 mps 740 mmHg 90%
    10:00 -5°C° 0 mm 2 mps 740 mmHg 86%
    11:00 -6°C° 0 mm 3 mps 740 mmHg 83%
    12:00 -6°C° 0 mm 3 mps 740 mmHg 81%
    13:00 -5°C° 0 mm 3 mps 740 mmHg 80%
    14:00 -5°C° 0 mm 3 mps 740 mmHg 78%
    15:00 -6°C° 0 mm 3 mps 740 mmHg 79%
    16:00 -6°C° 0 mm 3 mps 741 mmHg 80%
    17:00 -6°C° 0 mm 3 mps 741 mmHg 80%
    18:00 -7°C° 0 mm 3 mps 741 mmHg 83%
    19:00 -6°C° 0 mm 2 mps 741 mmHg 85%
    20:00 -7°C° 0 mm 2 mps 741 mmHg 88%
    21:00 -7°C° 0 mm 2 mps 742 mmHg 88%
    22:00 -8°C° 0 mm 2 mps 742 mmHg 89%
    23:00 -8°C° 0 mm 2 mps 742 mmHg 90%
    Show more